Hourly Weather Daga

Today, 23 April, Friday

Time Temperature Precipitation Wind Pressure Humidity
00:00 +15°C° 0.1 mm 1 mps 617 mmHg 93%
01:00 +15°C° 0.1 mm 1 mps 617 mmHg 93%
02:00 +15°C° 0 mm 1 mps 616 mmHg 93%
03:00 +14°C° 0 mm 0 mps 616 mmHg 93%
04:00 +13°C° 0 mm 0 mps 616 mmHg 94%
05:00 +13°C° 0 mm 0 mps 616 mmHg 94%
06:00 +14°C° 0 mm 0 mps 617 mmHg 93%
07:00 +15°C° 0 mm 0 mps 618 mmHg 91%
08:00 +16°C° 0 mm 0 mps 619 mmHg 90%
09:00 +19°C° 0.4 mm 1 mps 619 mmHg 87%
10:00 +20°C° 0.4 mm 1 mps 619 mmHg 84%
11:00 +21°C° 0.4 mm 1 mps 619 mmHg 81%
12:00 +21°C° 0.8 mm 1 mps 619 mmHg 80%
13:00 +21°C° 0.8 mm 2 mps 618 mmHg 79%
14:00 +21°C° 0.8 mm 2 mps 617 mmHg 78%
15:00 +22°C° 0.8 mm 1 mps 617 mmHg 81%
16:00 +21°C° 0.8 mm 1 mps 617 mmHg 85%
17:00 +20°C° 0.8 mm 1 mps 617 mmHg 88%
18:00 +19°C° 0.8 mm 1 mps 617 mmHg 90%
19:00 +18°C° 0.8 mm 1 mps 617 mmHg 92%
20:00 +15°C° 0.8 mm 0 mps 617 mmHg 94%
21:00 +15°C° 0.2 mm 0 mps 617 mmHg 94%
22:00 +14°C° 0.2 mm 0 mps 617 mmHg 94%
23:00 +14°C° 0.2 mm 0 mps 617 mmHg 94%

Tomorrow, 24 April, Saturday

Time Temperature Precipitation Wind Pressure Humidity
00:00 +14°C° 0 mm 0 mps 616 mmHg 94%
01:00 +15°C° 0 mm 1 mps 616 mmHg 94%
02:00 +15°C° 0 mm 1 mps 615 mmHg 94%
03:00 +14°C° 0 mm 1 mps 616 mmHg 94%
04:00 +13°C° 0 mm 0 mps 616 mmHg 94%
05:00 +13°C° 0 mm 0 mps 616 mmHg 94%
06:00 +14°C° 0 mm 0 mps 617 mmHg 92%
07:00 +16°C° 0 mm 0 mps 618 mmHg 89%
08:00 +17°C° 0 mm 0 mps 618 mmHg 87%
09:00 +20°C° 0.3 mm 1 mps 619 mmHg 82%
10:00 +21°C° 0.3 mm 1 mps 619 mmHg 77%
11:00 +23°C° 0.3 mm 1 mps 619 mmHg 72%
12:00 +23°C° 0.3 mm 2 mps 618 mmHg 71%
13:00 +23°C° 0.3 mm 2 mps 618 mmHg 70%
14:00 +24°C° 0.3 mm 2 mps 617 mmHg 69%
15:00 +23°C° 0.5 mm 2 mps 617 mmHg 74%
16:00 +22°C° 0.5 mm 1 mps 616 mmHg 80%
17:00 +21°C° 0.5 mm 1 mps 616 mmHg 85%
18:00 +20°C° 0.1 mm 1 mps 616 mmHg 87%
19:00 +19°C° 0.1 mm 1 mps 616 mmHg 89%
20:00 +16°C° 0.1 mm 1 mps 616 mmHg 91%
21:00 +16°C° 0 mm 1 mps 616 mmHg 92%
22:00 +16°C° 0 mm 1 mps 617 mmHg 92%
23:00 +15°C° 0 mm 1 mps 617 mmHg 92%

Day after tomorrow, 25 April, Sunday

Time Temperature Precipitation Wind Pressure Humidity
00:00 +15°C° 0 mm 1 mps 616 mmHg 92%
01:00 +15°C° 0 mm 1 mps 616 mmHg 92%
02:00 +15°C° 0 mm 1 mps 616 mmHg 93%
03:00 +14°C° 0 mm 1 mps 616 mmHg 93%
04:00 +13°C° 0 mm 0 mps 616 mmHg 93%
05:00 +13°C° 0 mm 0 mps 616 mmHg 93%
06:00 +14°C° 0.1 mm 0 mps 617 mmHg 91%
07:00 +16°C° 0.1 mm 0 mps 618 mmHg 88%
08:00 +17°C° 0.1 mm 0 mps 619 mmHg 86%
09:00 +20°C° 0.7 mm 1 mps 619 mmHg 83%
10:00 +20°C° 0.7 mm 2 mps 619 mmHg 79%
11:00 +21°C° 0.7 mm 3 mps 619 mmHg 75%
12:00 +21°C° 1.2 mm 2 mps 618 mmHg 77%
13:00 +21°C° 1.2 mm 2 mps 618 mmHg 78%
14:00 +21°C° 1.2 mm 2 mps 617 mmHg 80%
15:00 +22°C° 0.6 mm 1 mps 617 mmHg 82%
16:00 +21°C° 0.6 mm 1 mps 617 mmHg 84%
17:00 +21°C° 0.6 mm 1 mps 617 mmHg 86%
18:00 +20°C° 0.8 mm 1 mps 617 mmHg 88%
19:00 +19°C° 0.8 mm 1 mps 617 mmHg 89%
20:00 +16°C° 0.8 mm 1 mps 617 mmHg 91%
21:00 +16°C° 0.3 mm 1 mps 617 mmHg 91%
22:00 +16°C° 0.3 mm 1 mps 617 mmHg 91%
23:00 +15°C° 0.3 mm 1 mps 617 mmHg 91%

26 April, Monday

Time Temperature Precipitation Wind Pressure Humidity
00:00 +15°C° 0.1 mm 1 mps 616 mmHg 91%
01:00 +15°C° 0.1 mm 1 mps 616 mmHg 91%
02:00 +15°C° 0.1 mm 1 mps 616 mmHg 91%
03:00 +14°C° 0 mm 1 mps 616 mmHg 91%
04:00 +13°C° 0 mm 0 mps 616 mmHg 91%
05:00 +13°C° 0 mm 0 mps 616 mmHg 91%
06:00 +14°C° 0 mm 0 mps 617 mmHg 89%
07:00 +15°C° 0 mm 0 mps 618 mmHg 87%
08:00 +16°C° 0 mm 0 mps 619 mmHg 85%
09:00 +20°C° 0.2 mm 1 mps 619 mmHg 81%
10:00 +21°C° 0.2 mm 1 mps 619 mmHg 77%
11:00 +21°C° 0.2 mm 2 mps 619 mmHg 74%
12:00 +21°C° 0.4 mm 2 mps 619 mmHg 73%
13:00 +23°C° 0.4 mm 2 mps 618 mmHg 73%
14:00 +23°C° 0.4 mm 2 mps 617 mmHg 73%
15:00 +22°C° 0.5 mm 1 mps 617 mmHg 78%
16:00 +21°C° 0.5 mm 1 mps 617 mmHg 83%
17:00 +21°C° 0.5 mm 1 mps 617 mmHg 87%
18:00 +20°C° 1.4 mm 1 mps 617 mmHg 89%
19:00 +16°C° 1.4 mm 0 mps 617 mmHg 91%
20:00 +15°C° 1.4 mm 0 mps 617 mmHg 92%
21:00 +15°C° 0.3 mm 0 mps 617 mmHg 92%
22:00 +15°C° 0.3 mm 0 mps 617 mmHg 92%
23:00 +16°C° 0.3 mm 1 mps 617 mmHg 91%

27 April, Tuesday

Time Temperature Precipitation Wind Pressure Humidity
00:00 +16°C° 0 mm 1 mps 616 mmHg 92%
01:00 +15°C° 0 mm 1 mps 616 mmHg 92%
02:00 +15°C° 0 mm 1 mps 616 mmHg 93%
03:00 +15°C° 0.1 mm 1 mps 616 mmHg 93%
04:00 +15°C° 0.1 mm 1 mps 616 mmHg 93%
05:00 +14°C° 0.1 mm 1 mps 616 mmHg 94%
06:00 +14°C° 0.1 mm 0 mps 617 mmHg 92%
07:00 +15°C° 0.1 mm 0 mps 617 mmHg 90%
08:00 +16°C° 0.1 mm 0 mps 618 mmHg 88%
09:00 +19°C° 0.5 mm 1 mps 618 mmHg 87%
10:00 +20°C° 0.5 mm 1 mps 618 mmHg 86%
11:00 +19°C° 0.5 mm 2 mps 618 mmHg 85%
12:00 +20°C° 0.3 mm 1 mps 618 mmHg 84%
13:00 +20°C° 0.3 mm 1 mps 617 mmHg 84%
14:00 +20°C° 0.3 mm 1 mps 617 mmHg 83%
15:00 +20°C° 0.1 mm 1 mps 617 mmHg 83%
16:00 +20°C° 0.1 mm 1 mps 617 mmHg 84%
17:00 +20°C° 0.1 mm 1 mps 617 mmHg 84%
18:00 +17°C° 0.2 mm 0 mps 617 mmHg 86%
19:00 +16°C° 0.2 mm 0 mps 617 mmHg 88%
20:00 +15°C° 0.2 mm 0 mps 617 mmHg 91%
21:00 +15°C° 0.3 mm 0 mps 617 mmHg 91%
22:00 +14°C° 0.3 mm 0 mps 617 mmHg 92%
23:00 +14°C° 0.3 mm 0 mps 617 mmHg 92%

28 April, Wednesday

Time Temperature Precipitation Wind Pressure Humidity
00:00 +14°C° 0 mm 0 mps 616 mmHg 92%
01:00 +14°C° 0 mm 0 mps 616 mmHg 92%
02:00 +14°C° 0 mm 0 mps 616 mmHg 92%
03:00 +14°C° 0 mm 0 mps 616 mmHg 92%
04:00 +14°C° 0 mm 0 mps 616 mmHg 92%
05:00 +14°C° 0 mm 0 mps 616 mmHg 92%
06:00 +15°C° 0 mm 0 mps 617 mmHg 89%
07:00 +16°C° 0 mm 0 mps 618 mmHg 87%
08:00 +17°C° 0 mm 0 mps 618 mmHg 84%
09:00 +18°C° 0.5 mm 0 mps 619 mmHg 80%
10:00 +22°C° 0.5 mm 1 mps 619 mmHg 75%
11:00 +23°C° 0.5 mm 1 mps 619 mmHg 71%
12:00 +23°C° 1 mm 1 mps 618 mmHg 72%
13:00 +23°C° 1 mm 1 mps 618 mmHg 73%
14:00 +23°C° 1 mm 2 mps 617 mmHg 75%
15:00 +22°C° 1.1 mm 1 mps 617 mmHg 79%
16:00 +22°C° 1.1 mm 1 mps 617 mmHg 83%
17:00 +21°C° 1.1 mm 1 mps 616 mmHg 87%
18:00 +20°C° 0.9 mm 1 mps 617 mmHg 88%
19:00 +17°C° 0.9 mm 0 mps 617 mmHg 90%
20:00 +15°C° 0.9 mm 0 mps 617 mmHg 92%
21:00 +15°C° 1.3 mm 0 mps 617 mmHg 93%
22:00 +15°C° 1.3 mm 0 mps 617 mmHg 93%
23:00 +15°C° 1.3 mm 0 mps 617 mmHg 94%
Show more